Location: Bartshausen
(51.8454°N, 9.8167°E)
Time: 06:26:22
(UTC+00:00)

NOSS 2-1 (C) - Pass Details

Date: 08 November 2025
Orbit: 375 x 1687 km, 63.3° (Epoch: 11 December)

Event Time Altitude Azimuth Distance (km) Brightness Sun altitude
Exits shadow 04:13:22 47° 170° (S) 576 3.4 -20.9°
Maximum altitude 04:13:54 54° 132° (SE) 515 3.4 -20.8°
Drops below altitude 10° 04:16:51 10° 53° (NE) 1,416 6.1 -20.3°
Sets 04:18:47 0° 49° (NE) 2,251 7.2 -20.0°
